Date String (YYYY-MM-DD hh:mm:ss) UTC,Instrument flags,Ambient pressure (hPa),Sample flow (lpm),Bypass flow (lpm),Sample temperature (°C),Ambient temperature (°C),ASC tube jacket temperature (°C),LED temperature (°C),Box temperature (°C),Sample RH (%),Span deviation,Mass concentration (μg/m³),Mass concentration (μg/m³),Mass concentration (μg/m³)
DateTimeUTC,F1_M11,P_M11,Q1_M11,Q2_M11,T1_M11,T2_M11,T3_M11,T4_M11,T5_M11,U1_M11,ZSPAN_M11,X0_M11,X2_M11,X1_M11
2021-09-24 16:00:00,,0834.1,4.99,0.00,30.7,29.6,00.0,39.9,32.4,14.5,0000.0,0010.23,0004.05,0003.27
2021-09-24 16:01:00,,0834.2,5.01,0.00,30.7,29.6,00.0,39.9,32.4,14.5,0000.0,0009.90,0004.05,0003.26
2021-09-24 16:02:00,,0834.1,5.00,0.00,30.8,29.7,00.0,39.9,32.4,14.4,0000.0,0009.42,0004.04,0003.26
2021-09-24 16:03:00,,0834.1,4.99,0.00,30.8,29.8,00.0,39.9,32.5,14.5,0000.0,0009.90,0004.06,0003.25
2021-09-24 16:04:00,,0834.0,5.02,0.00,30.8,29.8,00.0,39.9,32.5,14.5,0000.0,0009.85,0004.04,0003.25
2021-09-24 16:05:00,,0834.1,4.99,0.00,30.8,29.9,00.0,39.9,32.5,14.6,0000.0,0009.71,0004.03,0003.24
2021-09-24 16:06:00,,0834.1,5.01,0.00,30.8,29.9,00.0,39.9,32.6,14.5,0000.0,0009.55,0003.99,0003.23
2021-09-24 16:07:00,,0834.1,5.00,0.00,30.9,30.0,00.0,39.9,32.6,14.5,0000.0,0009.66,0003.97,0003.24
2021-09-24 16:08:00,,0834.1,5.00,0.00,30.9,30.0,00.0,39.9,32.6,14.6,0000.0,0010.18,0003.98,0003.25
2021-09-24 16:09:00,,0834.1,5.01,0.00,30.9,30.0,00.0,39.9,32.6,14.5,0000.0,0010.62,0003.96,0003.24
2021-09-24 16:10:00,,0834.1,5.00,0.00,30.9,30.1,00.0,40.0,32.6,14.5,0000.0,0010.72,0003.92,0003.24
2021-09-24 16:11:00,,0834.1,4.99,0.00,30.9,30.1,00.0,40.0,32.7,14.5,0000.0,0010.96,0003.93,0003.24
2021-09-24 16:12:00,,0834.1,4.99,0.00,30.9,30.1,00.0,40.0,32.7,14.6,0000.0,0011.33,0003.95,0003.24
2021-09-24 16:13:00,,0834.0,5.00,0.00,31.0,30.2,00.0,40.0,32.7,14.6,0000.0,0011.42,0004.00,0003.25
2021-09-24 16:14:00,,0834.0,5.00,0.00,31.0,29.4,00.0,40.0,32.5,14.8,0000.0,0011.20,0004.00,0003.26
2021-09-24 16:15:00,,0834.1,5.00,0.00,30.8,27.4,00.0,40.0,32.1,14.7,0000.0,0011.46,0004.03,0003.26
2021-09-24 16:16:00,,0834.1,5.00,0.00,30.7,27.0,00.0,40.0,31.9,14.8,0000.0,0011.64,0004.04,0003.27
2021-09-24 16:17:00,,0834.1,5.01,0.00,30.6,27.3,00.0,39.9,32.0,14.8,0000.0,0012.55,0004.04,0003.26
2021-09-24 16:18:00,,0834.1,5.00,0.00,30.5,27.7,00.0,39.9,32.0,14.9,0000.0,0012.45,0004.02,0003.25
2021-09-24 16:19:00,,0834.1,5.00,0.00,30.5,28.1,00.0,39.8,32.0,15.0,0000.0,0011.95,0004.01,0003.25
2021-09-24 16:20:00,,0834.1,5.00,0.00,30.5,28.5,00.0,39.8,32.1,15.0,0000.0,0012.30,0004.01,0003.24
2021-09-24 16:21:00,,0834.1,5.00,0.00,30.5,28.7,00.0,39.8,32.1,15.0,0000.0,0012.13,0004.06,0003.25
2021-09-24 16:22:00,,0834.1,5.01,0.00,30.5,29.0,00.0,39.7,32.2,15.0,0000.0,0012.51,0004.05,0003.25
2021-09-24 16:23:00,,0834.0,4.99,0.00,30.5,29.1,00.0,39.7,32.2,15.0,0000.0,0011.97,0004.01,0003.24
2021-09-24 16:24:00,,0834.1,5.01,0.00,30.6,29.3,00.0,39.7,32.2,14.9,0000.0,0012.18,0004.01,0003.24
2021-09-24 16:25:00,,0834.1,4.99,0.00,30.6,29.4,00.0,39.7,32.3,14.9,0000.0,0012.33,0004.05,0003.24
2021-09-24 16:26:00,,0834.1,5.00,0.00,30.6,29.5,00.0,39.7,32.3,14.9,0000.0,0012.27,0004.07,0003.24
2021-09-24 16:27:00,,0834.1,5.00,0.00,30.6,29.5,00.0,39.7,32.3,14.9,0000.0,0012.30,0004.07,0003.24
2021-09-24 16:28:00,,0834.1,4.99,0.00,30.7,29.6,00.0,39.7,32.4,14.9,0000.0,0011.62,0004.09,0003.24
2021-09-24 16:29:00,,0834.0,5.01,0.00,30.7,29.7,00.0,39.8,32.4,14.9,0000.0,0012.10,0004.07,0003.25
2021-09-24 16:30:00,,0834.0,4.99,0.00,30.7,29.7,00.0,39.8,32.4,14.9,0000.0,0012.49,0004.08,0003.26
2021-09-24 16:31:00,,0834.0,5.00,0.00,30.7,29.8,00.0,39.8,32.5,15.0,0000.0,0012.40,0004.09,0003.26
2021-09-24 16:32:00,,0834.0,4.99,0.00,30.8,29.8,00.0,39.8,32.5,15.0,0000.0,0011.75,0004.11,0003.27
2021-09-24 16:33:00,,0834.0,5.00,0.00,30.8,29.9,00.0,39.8,32.5,15.1,0000.0,0011.33,0004.13,0003.27
2021-09-24 16:34:00,,0834.0,5.01,0.00,30.8,29.9,00.0,39.8,32.6,15.2,0000.0,0012.34,0004.16,0003.29
2021-09-24 16:35:00,,0834.0,5.00,0.00,30.8,29.6,00.0,39.8,32.5,15.0,0000.0,0012.06,0004.15,0003.30
2021-09-24 16:36:00,,0834.0,4.99,0.00,30.7,27.7,00.0,39.8,32.0,14.9,0000.0,0011.82,0004.14,0003.31
2021-09-24 16:37:00,,0833.9,4.99,0.00,30.5,26.7,00.0,39.8,31.7,15.1,0000.0,0012.39,0004.14,0003.32
2021-09-24 16:38:00,,0833.9,5.02,0.00,30.4,27.0,00.0,39.7,31.7,15.2,0000.0,0012.60,0004.14,0003.32
2021-09-24 16:39:00,,0833.8,4.99,0.00,30.3,27.4,00.0,39.7,31.7,15.3,0000.0,0012.99,0004.19,0003.31
2021-09-24 16:40:00,,0833.8,5.00,0.00,30.3,27.8,00.0,39.6,31.8,15.3,0000.0,0013.40,0004.21,0003.31
2021-09-24 16:41:00,,0833.8,5.00,0.00,30.3,28.2,00.0,39.6,31.9,15.4,0000.0,0013.91,0004.25,0003.31
2021-09-24 16:42:00,,0833.8,5.00,0.00,30.3,28.5,00.0,39.6,32.0,15.3,0000.0,0014.05,0004.29,0003.32
2021-09-24 16:43:00,,0833.8,4.99,0.00,30.3,28.7,00.0,39.6,32.0,15.2,0000.0,0015.67,0004.29,0003.32
2021-09-24 16:44:00,,0833.8,5.01,0.00,30.4,28.9,00.0,39.6,32.1,15.4,0000.0,0016.12,0004.32,0003.32
2021-09-24 16:45:00,,0833.8,4.99,0.00,30.4,29.0,00.0,39.6,32.1,15.3,0000.0,0015.56,0004.30,0003.32
2021-09-24 16:46:00,,0833.7,5.00,0.00,30.4,29.2,00.0,39.5,32.1,15.2,0000.0,0015.73,0004.34,0003.32
2021-09-24 16:47:00,,0833.7,5.00,0.00,30.4,29.3,00.0,39.6,32.2,15.2,0000.0,0015.48,0004.31,0003.31
2021-09-24 16:48:00,,0833.7,5.00,0.00,30.4,29.4,00.0,39.6,32.2,15.3,0000.0,0014.77,0004.27,0003.31
2021-09-24 16:49:00,,0833.6,4.99,0.00,30.5,29.4,00.0,39.6,32.2,15.2,0000.0,0014.69,0004.29,0003.33
2021-09-24 16:50:00,,0833.7,5.00,0.00,30.5,29.5,00.0,39.6,32.3,15.2,0000.0,0014.58,0004.29,0003.35
2021-09-24 16:51:00,,0833.7,5.01,0.00,30.5,29.6,00.0,39.6,32.3,15.3,0000.0,0014.09,0004.32,0003.35
2021-09-24 16:52:00,,0833.7,5.00,0.00,30.5,29.6,00.0,39.6,32.3,15.5,0000.0,0014.26,0004.34,0003.36
2021-09-24 16:53:00,,0833.7,4.99,0.00,30.6,29.7,00.0,39.6,32.3,15.3,0000.0,0014.50,0004.38,0003.37
2021-09-24 16:54:00,,0833.7,5.00,0.00,30.6,29.5,00.0,39.6,32.3,15.3,0000.0,0013.34,0004.36,0003.37
2021-09-24 16:55:00,,0833.7,5.01,0.00,30.5,27.8,00.0,39.6,31.9,15.4,0000.0,0012.92,0004.32,0003.38
2021-09-24 16:56:00,,0833.7,4.99,0.00,30.4,26.4,00.0,39.6,31.5,15.6,0000.0,0012.46,0004.32,0003.37
2021-09-24 16:57:00,,0833.7,4.99,0.00,30.3,26.6,00.0,39.5,31.5,15.6,0000.0,0013.01,0004.28,0003.38
2021-09-24 16:58:00,,0833.7,5.01,0.00,30.2,27.0,00.0,39.5,31.6,15.6,0000.0,0013.65,0004.30,0003.38
2021-09-24 16:59:00,,0833.7,5.00,0.00,30.1,27.5,00.0,39.4,31.6,15.6,0000.0,0013.73,0004.38,0003.37
